This is the latest recevied weather packets stored in our database for station/object SV9TNF-52. If no packets are shown the sender has not sent any weather packets the latest 10 day(s).
| Time | Temp. | Humidity | Pressure | Rain* | Wind** | Luminosity | Snow |
|---|---|---|---|---|---|---|---|
| 1788019915 | 26.67° C | 61% | 1020.7 hPa | 0 mm | 6.26 m/s, 218° | - | - |
| 1788019615 | 26.11° C | 59% | 1020.7 hPa | 0 mm | 2.68 m/s, 86° | - | - |
| 1788019315 | 26.67° C | 60% | 1020.7 hPa | 0 mm | 2.68 m/s, 125° | - | - |
| 1788019015 | 26.67° C | 63% | 1020.7 hPa | 0 mm | 11.18 m/s, 53° | - | - |
| 1788018715 | 26.67° C | 63% | 1020.7 hPa | 0 mm | 12.07 m/s, 6° | - | - |
| 1788018414 | 26.67° C | 63% | 1021 hPa | 0 mm | 6.26 m/s, 109° | - | - |
| 1788018114 | 26.67° C | 62% | 1021 hPa | 0 mm | 4.02 m/s, 74° | - | - |
| 1788017814 | 26.67° C | 63% | 1021 hPa | 0 mm | 6.71 m/s, 354° | - | - |
| 1788017514 | 27.22° C | 63% | 1021 hPa | 0 mm | 12.07 m/s, 40° | - | - |
| 1788017214 | 27.22° C | 61% | 1021 hPa | 0 mm | 11.18 m/s, 316° | - | - |
| 1788016914 | 27.78° C | 60% | 1021.7 hPa | 0 mm | 6.26 m/s, 0° | - | - |
| 1788016614 | 27.78° C | 58% | 1021.7 hPa | 0 mm | 2.68 m/s, 87° | - | - |
| 1788016314 | 27.22° C | 58% | 1021.7 hPa | 0 mm | 8.94 m/s, 318° | - | - |
| 1788016014 | 27.22° C | 59% | 1021.7 hPa | 0 mm | 9.83 m/s, 34° | - | - |
| 1788015714 | 27.78° C | 59% | 1021.7 hPa | 0 mm | 7.6 m/s, 5° | - | - |
| 1788015414 | 27.78° C | 58% | 1021.7 hPa | 0 mm | 8.05 m/s, 302° | - | - |
| 1788015113 | 27.78° C | 56% | 1021.7 hPa | 0 mm | 2.24 m/s, 11° | - | - |
| 1788014813 | 28.33° C | 58% | 1021.7 hPa | 0 mm | 5.81 m/s, 132° | - | - |
| 1788014513 | 27.78° C | 58% | 1021.7 hPa | 0 mm | 1.79 m/s, 75° | - | - |
| 1788014213 | 27.78° C | 56% | 1021.7 hPa | 0 mm | 12.52 m/s, 4° | - | - |
| 1788013913 | 28.33° C | 56% | 1021.7 hPa | 0 mm | 5.81 m/s, 114° | - | - |
| 1788013613 | 27.78° C | 56% | 1021.7 hPa | 0 mm | 3.58 m/s, 95° | - | - |
| 1788013313 | 28.33° C | 55% | 1021.7 hPa | 0 mm | 8.49 m/s, 358° | - | - |
| 1788013013 | 27.78° C | 59% | 1021.7 hPa | 0 mm | 6.26 m/s, 24° | - | - |
| 1788012713 | 27.78° C | 56% | 1021.7 hPa | 0 mm | 4.47 m/s, 358° | - | - |
* Rain latest hour (hover to see other rain measurements)
** Current wind speed in m/s (hover to see current wind gust speed)